EA3HMJ Weather Reports


Display with metric or nautical units.
time (UTC)temp
F
wind
direction
speed
MPH
gust
MPH
rain 1hr
in
rain 24hr
in
rain mn
in
humidity
%
barometer
mb
20260506165538 65 114 1.0 4.0 0.00 0.01 0.00 50 1009.6
20260506164530 66 114 3.0 11.0 0.00 0.02 0.00 50 1009.7
20260506163525 65 126 1.0 4.0 0.00 0.02 0.00 50 1009.6
20260506162540 66 19 2.0 4.0 0.00 0.02 0.00 50 1009.5
20260506161615 67 92 3.0 6.0 0.00 0.05 0.00 48 1009.4
20260506160607 68 119 3.0 6.0 0.00 0.05 0.00 47 1009.4
20260506155603 68 138 2.0 6.0 0.00 0.17 0.00 47 1009.3
20260506154556 69 175 2.0 7.0 0.00 0.38 0.00 47 1009.2
20260506153551 68 267 2.0 6.0 0.00 0.38 0.00 46 1009.2
20260506152603 69 151 3.0 7.0 0.00 0.38 0.00 43 1009.4
20260506151539 70 106 2.0 7.0 0.00 0.38 0.00 44 1009.4
20260506150534 70 90 2.0 4.0 0.00 0.38 0.00 42 1009.5
20260506145527 70 161 3.0 8.0 0.00 0.38 0.00 42 1009.3
20260506144541 69 9 2.0 6.0 0.00 0.38 0.00 42 1009.4
20260506143637 69 285 4.0 13.0 0.00 0.38 0.00 42 1009.8
20260506142610 70 0 3.0 9.0 0.00 0.38 0.00 41 1009.6
20260506141604 68 292 6.0 11.0 0.00 0.38 0.00 43 1009.8
20260506140619 68 306 3.0 8.0 0.00 0.38 0.00 42 1009.8
20260506135556 68 295 3.0 8.0 0.00 0.38 0.00 42 1010.0
20260506134550 69 314 4.0 11.0 0.00 0.38 0.00 42 1009.9
20260506133545 70 309 2.0 6.0 0.00 0.38 0.00 41 1010.1
20260506132540 69 285 3.0 8.0 0.00 0.38 0.00 40 1010.1
20260506131532 68 265 6.0 11.0 0.00 0.38 0.00 40 1010.3
20260506130527 68 62 3.0 7.0 0.00 0.38 0.00 40 1010.3
20260506125521 69 267 5.0 13.0 0.00 0.38 0.00 41 1010.3
20260506124656 68 253 2.0 4.0 0.00 0.38 0.00 42 1010.3
20260506123651 66 276 6.0 14.0 0.00 0.38 0.00 43 1010.4
20260506122602 66 288 6.0 11.0 0.00 0.38 0.00 43 1010.4
20260506121555 67 292 3.0 6.0 0.00 0.38 0.00 42 1010.5
20260506120548 67 270 3.0 6.0 0.00 0.38 0.00 40 1010.4
20260506115544 66 277 3.0 9.0 0.00 0.38 0.00 42 1010.5
20260506114538 66 284 4.0 13.0 0.00 0.38 0.00 42 1010.6
20260506113532 66 23 3.0 7.0 0.00 0.38 0.00 42 1010.7
20260506112527 65 17 2.0 4.0 0.00 0.38 0.00 46 1010.8
20260506111522 64 248 5.0 11.0 0.00 0.38 0.00 47 1011.0
20260506110518 64 268 3.0 9.0 0.00 0.38 0.00 50 1011.0
20260506105611 63 264 1.0 4.0 0.00 0.38 0.00 52 1011.0
20260506104708 65 311 2.0 4.0 0.00 0.38 0.00 50 1011.2
20260506103601 64 185 2.0 4.0 0.00 0.38 0.00 52 1011.3
20260506102555 63 257 1.0 4.0 0.00 0.38 0.00 53 1011.3
20260506101548 63 299 3.0 9.0 0.00 0.38 0.00 53 1011.5
20260506100543 61 276 2.0 7.0 0.00 0.38 0.00 55 1011.4
20260506095536 62 290 3.0 9.0 0.00 0.38 0.00 54 1011.5
20260506094552 61 350 4.0 8.0 0.00 0.38 0.00 56 1011.7
20260506093527 60 297 3.0 6.0 0.00 0.38 0.00 56 1011.7
20260506092520 59 275 4.0 7.0 0.00 0.38 0.00 56 1011.6
20260506091614 59 284 5.0 9.0 0.00 0.38 0.00 57 1011.7
20260506090607 59 304 4.0 8.0 0.00 0.38 0.00 56 1011.5
20260506085621 59 282 5.0 9.0 0.00 0.38 0.00 56 1011.5
20260506084614 58 287 5.0 11.0 0.00 0.38 0.00 56 1011.5
20260506083551 58 292 3.0 8.0 0.00 0.38 0.00 56 1011.5
20260506082544 58 282 4.0 7.0 0.00 0.38 0.00 59 1011.5
20260506081535 57 285 4.0 9.0 0.00 0.38 0.00 61 1011.3
20260506080529 56 278 4.0 8.0 0.00 0.38 0.00 62 1011.1
20260506072604 55 287 4.0 9.0 0.00 0.38 0.00 68 1011.1
20260506071556 53 330 6.0 11.0 0.00 0.38 0.00 70 1010.9
20260506070551 53 308 6.0 14.0 0.00 0.38 0.00 70 1010.9
20260506061524 54 296 1.0 4.0 0.00 0.38 0.00 72 1010.9
20260506060517 54 270 1.0 2.0 0.00 0.38 0.00 71 1010.9
20260506050546 50 310 1.0 2.0 0.00 0.38 0.00 76 1010.4
20260506044535 50 335 2.0 6.0 0.00 0.38 0.00 77 1010.4
20260506043610 50 303 1.0 2.0 0.00 0.38 0.00 77 1010.3
20260506042522 50 293 2.0 4.0 0.00 0.38 0.00 78 1010.2
20260506041518 49 315 1.0 2.0 0.00 0.38 0.00 78 1010.1
20260506040612 49 310 1.0 4.0 0.00 0.38 0.00 79 1010.2
20260506035605 51 295 2.0 4.0 0.00 0.38 0.00 78 1010.0
20260506034559 51 357 2.0 4.0 0.00 0.38 0.00 75 1009.9
20260506033553 50 338 3.0 4.0 0.00 0.38 0.00 77 1009.9
20260506032547 51 300 1.0 2.0 0.00 0.38 0.00 79 1010.0
20260506031540 51 313 1.0 4.0 0.00 0.38 0.00 77 1010.0
20260506030535 52 279 2.0 4.0 0.00 0.38 0.00 77 1009.9
20260506025527 52 90 0.0 2.0 0.00 0.38 0.00 76 1009.8
20260506024521 52 0.0 2.0 0.00 0.38 0.00 75 1009.8
20260506023616 52 11 2.0 4.0 0.00 0.38 0.00 74 1009.9
20260506022630 52 315 1.0 2.0 0.00 0.38 0.00 75 1009.9
20260506021644 53 297 1.0 4.0 0.00 0.38 0.00 73 1009.8
20260506020558 53 270 0.0 2.0 0.00 0.38 0.00 72 1009.7
20260506015551 53 290 1.0 2.0 0.00 0.38 0.00 74 1009.5
20260506014547 53 301 1.0 4.0 0.00 0.38 0.00 72 1009.3
20260506013541 53 293 1.0 4.0 0.00 0.38 0.00 73 1009.6
20260506012536 53 315 2.0 4.0 0.00 0.38 0.00 72 1009.7
20260506011530 52 307 1.0 4.0 0.00 0.38 0.00 77 1009.6
20260506010626 52 270 0.0 2.0 0.00 0.38 0.00 81 1009.8
20260506005519 52 287 0.0 2.0 0.00 0.38 0.00 83 1009.8
20260506004611 52 0.0 0.0 0.00 0.38 0.00 83 1009.9
20260506003645 52 0.0 0.0 0.00 0.38 0.00 83 1010.0
20260506002558 53 0.0 0.0 0.00 0.38 0.00 83 1009.9
20260506000548 53 0.0 0.0 0.00 0.38 0.00 84 1010.0
20260505235623 53 0.0 2.0 0.00 0.38 0.00 83 1010.1
20260505234537 53 270 0.0 2.0 0.00 0.38 0.00 82 1010.0
20260505233532 52 6 1.0 2.0 0.00 0.38 0.00 82 1010.0
20260505232526 52 360 2.0 4.0 0.00 0.38 0.00 84 1010.2
20260505231540 52 323 2.0 4.0 0.00 0.38 0.00 84 1010.1
20260505230613 53 319 2.0 2.0 0.00 0.38 0.00 83 1010.0
20260505225606 53 338 3.0 4.0 0.00 0.38 0.00 82 1009.7
20260505224600 53 315 2.0 4.0 0.00 0.38 0.00 82 1009.9
20260505223556 54 299 2.0 4.0 0.00 0.38 0.00 81 1010.2
20260505222551 54 293 1.0 2.0 0.00 0.38 0.00 79 1010.3
20260505221546 54 338 2.0 4.0 0.00 0.38 0.00 80 1010.4
20260505220539 54 305 2.0 4.0 0.00 0.38 0.00 81 1010.6
20260505215551 54 333 2.0 4.0 0.00 0.38 0.38 80 1010.7
20260505214526 54 310 1.0 2.0 0.00 0.38 0.38 81 1010.7
20260505213519 53 351 1.0 2.0 0.00 0.38 0.38 82 1010.6
20260505212615 54 285 3.0 6.0 0.00 0.38 0.38 79 1010.6
20260505211611 54 322 1.0 2.0 0.00 0.38 0.38 81 1010.5
20260505210625 53 301 2.0 4.0 0.00 0.38 0.38 83 1010.5
20260505205559 53 326 2.0 4.0 0.00 0.38 0.38 82 1010.3
20260505204553 54 320 2.0 4.0 0.00 0.38 0.38 81 1010.3
20260505203548 54 313 1.0 2.0 0.00 0.38 0.38 81 1010.3
20260505202542 53 342 1.0 2.0 0.00 0.39 0.38 83 1010.1
20260505201536 53 342 1.0 2.0 0.00 0.43 0.38 83 1010.0
20260505200530 54 279 2.0 4.0 0.00 0.44 0.38 81 1010.0
20260505195525 55 275 2.0 4.0 0.00 0.44 0.38 78 1009.7
20260505194520 54 338 2.0 4.0 0.00 0.45 0.38 77 1009.3
20260505193615 55 349 3.0 4.0 0.00 0.45 0.38 78 1009.3
20260505192609 56 328 1.0 4.0 0.00 0.47 0.38 76 1009.2
20260505191604 55 33 2.0 6.0 0.00 0.47 0.38 78 1009.2
20260505190558 55 334 4.0 7.0 0.00 0.47 0.38 76 1009.3
20260505185552 55 360 3.0 6.0 0.00 0.47 0.38 79 1009.3
20260505184607 54 341 3.0 6.0 0.00 0.47 0.38 84 1009.2
20260505183542 54 334 3.0 6.0 0.00 0.47 0.38 84 1009.1
20260505182537 54 325 2.0 4.0 0.00 0.47 0.38 84 1009.2
20260505181530 54 330 4.0 8.0 0.01 0.47 0.38 83 1009.0
20260505180525 54 338 2.0 4.0 0.01 0.47 0.38 85 1009.2
20260505175538 54 320 2.0 4.0 0.01 0.47 0.38 86 1009.1
20260505174613 53 8 1.0 2.0 0.02 0.47 0.38 86 1009.2
20260505173627 55 295 2.0 4.0 0.02 0.47 0.38 83 1009.2
20260505172600 55 21 3.0 7.0 0.02 0.47 0.38 79 1009.1
20260505171555 55 78 2.0 7.0 0.04 0.46 0.37 84 1008.8
20260505170551 53 81 1.0 4.0 0.04 0.46 0.37 87 1009.4